テナグラ彗星

C/2013 C2 ( Tenagra )

English version
Home page
Updated on March 3, 2018

---------------------------------------------------------------------

・ プロフィール

発見日 2013年2月14日
発見光度 19.0等
発見者 P. R. Holvorcem, M. Schwartz (Tenagra Observatory)

・ 写真集

・ 軌道要素

Epoch 2015 Sept. 15.0 TT = JDT 2457280.5
T 2015 Aug. 30.29315 TT                                 MPCW
q   9.1309782            (2000.0)            P               Q
n   0.01531329     Peri.  308.79077     -0.91035114     +0.24124277
a  16.0604279      Node   247.52494     -0.16366953     -0.95614970
e   0.4314611      Incl.   21.33908     -0.38009616     -0.16607129
P  64.36
From 420 observations 2013 Feb. 14-2018 Feb. 13, mean residual 0".5.

・ 光度変化

        m1 = 4.0 + 5 logΔ + 10.0 log r

---------------------------------------------------------------------

軌道要素はM.P.E.C. 2018-D91に掲載されたものです。
光度グラフはComet for Windowsで作成したものです。

---------------------------------------------------------------------

Copyright(C) Seiichi Yoshida (comet@aerith.net). All rights reserved.